UAL247 KATL-KORD

Flight info

Callsign UAL247
Flight time 1h 34m
Altitude 37000
Route VARNM2 GLAZR Q118 VOSTK/N0466F380 Q118 HEVAN BONNT VEECK5
Aircraft B739/M-SDE2E3FGHIRWXY/LB1

Departure

Time 2026-05-08 02:45
Airport Hartsfield Jackson Atlanta International Airport (KATL)

Arrival

Time 2026-05-08 04:19
Airport Chicago O'Hare International Airport (KORD)
Time Latitude Longitude Altitude Speed Heading
2026-05-08 02:17 33.64047 -84.42981 1034 ft 0 kts 117°
2026-05-08 02:32 33.64051 -84.42988 1034 ft 3 kts 117°
2026-05-08 02:33 33.64059 -84.43008 1034 ft 3 kts 117°
2026-05-08 02:33 33.64068 -84.43028 1034 ft 3 kts 135°
2026-05-08 02:33 33.64071 -84.43033 1034 ft 0 kts 153°
2026-05-08 02:35 33.64063 -84.43036 1034 ft 3 kts 208°
2026-05-08 02:35 33.64070 -84.43059 1034 ft 4 kts 331°
2026-05-08 02:35 33.64081 -84.43061 1034 ft 0 kts 351°
2026-05-08 02:36 33.64084 -84.43062 1034 ft 0 kts 351°
2026-05-08 02:36 33.64091 -84.43063 1034 ft 6 kts 354°
2026-05-08 02:37 33.64177 -84.43065 1034 ft 19 kts
2026-05-08 02:37 33.64341 -84.43066 1034 ft 26 kts 359°
2026-05-08 02:37 33.64463 -84.42987 1035 ft 22 kts 83°
2026-05-08 02:37 33.64466 -84.42807 1034 ft 21 kts 89°
2026-05-08 02:38 33.64473 -84.42633 1034 ft 21 kts 90°
2026-05-08 02:38 33.64472 -84.42436 1034 ft 23 kts 90°
2026-05-08 02:38 33.64539 -84.42272 1034 ft 22 kts 83°
2026-05-08 02:38 33.64543 -84.42087 1034 ft 22 kts 89°
2026-05-08 02:39 33.64545 -84.41909 1034 ft 21 kts 89°
2026-05-08 02:39 33.64547 -84.41768 1034 ft 0 kts 89°
2026-05-08 02:39 33.64547 -84.41767 1034 ft 1 kts 89°
2026-05-08 02:39 33.64548 -84.41761 1034 ft 1 kts 89°
2026-05-08 02:40 33.64557 -84.41723 1032 ft 0 kts 71°
2026-05-08 02:40 33.64564 -84.41697 1028 ft 7 kts 71°
2026-05-08 02:40 33.64561 -84.41616 1035 ft 10 kts 101°
2026-05-08 02:40 33.64547 -84.41535 1035 ft 10 kts 101°
2026-05-08 02:41 33.64543 -84.41430 1035 ft 16 kts 87°
2026-05-08 02:41 33.64544 -84.41268 1035 ft 23 kts 89°
2026-05-08 02:41 33.64546 -84.41056 1035 ft 27 kts 89°
2026-05-08 02:41 33.64547 -84.40898 1034 ft 17 kts 89°
2026-05-08 02:42 33.64594 -84.40788 1033 ft 12 kts 352°
2026-05-08 02:42 33.64636 -84.40804 1033 ft 0 kts 342°
2026-05-08 02:44 33.64637 -84.40804 1033 ft 3 kts 340°
2026-05-08 02:44 33.64678 -84.40871 1034 ft 1 kts 273°
2026-05-08 02:44 33.64677 -84.40919 1035 ft 12 kts 268°
2026-05-08 02:44 33.64676 -84.41136 1035 ft 58 kts 270°
2026-05-08 02:45 33.64677 -84.41950 1035 ft 134 kts 270°
2026-05-08 02:45 33.64691 -84.43291 1208 ft 179 kts 271°
2026-05-08 02:45 33.64730 -84.44892 1683 ft 208 kts 273°
2026-05-08 02:45 33.64776 -84.46629 2727 ft 201 kts 278°
2026-05-08 02:46 33.65232 -84.48142 3800 ft 188 kts 301°
2026-05-08 02:46 33.65875 -84.49581 4208 ft 208 kts 297°
2026-05-08 02:46 33.66564 -84.51247 4446 ft 238 kts 296°
2026-05-08 02:46 33.67309 -84.53089 5071 ft 249 kts 295°
2026-05-08 02:47 33.68060 -84.54959 6006 ft 247 kts 294°
2026-05-08 02:47 33.69039 -84.56664 6925 ft 253 kts 314°
2026-05-08 02:47 33.70549 -84.57801 7770 ft 263 kts 331°
2026-05-08 02:47 33.72392 -84.58223 8602 ft 279 kts 350°
2026-05-08 02:48 33.74329 -84.58205 9389 ft 285 kts 352°
2026-05-08 02:48 33.76352 -84.58156 10190 ft 289 kts 351°
2026-05-08 02:48 33.78327 -84.58115 11025 ft 287 kts 350°
2026-05-08 02:48 33.80349 -84.58087 11691 ft 293 kts 349°
2026-05-08 02:49 33.82416 -84.58078 12215 ft 305 kts 348°
2026-05-08 02:49 33.84602 -84.58112 12405 ft 327 kts 349°
2026-05-08 02:49 33.86928 -84.58177 12553 ft 347 kts 349°
2026-05-08 02:49 33.89414 -84.58263 12697 ft 367 kts 350°
2026-05-08 02:50 33.92019 -84.58351 12960 ft 380 kts 350°
2026-05-08 02:50 33.94688 -84.58431 13514 ft 385 kts 351°
2026-05-08 02:50 33.97367 -84.58506 14150 ft 386 kts 350°
2026-05-08 02:50 34.00063 -84.58582 14670 ft 389 kts 350°
2026-05-08 02:51 34.02787 -84.58660 15156 ft 393 kts 349°
2026-05-08 02:51 34.05533 -84.58742 15625 ft 396 kts 349°
2026-05-08 02:51 34.08300 -84.58824 16111 ft 399 kts 349°
2026-05-08 02:51 34.11089 -84.58908 16623 ft 402 kts 350°
2026-05-08 02:52 34.13857 -84.58990 17154 ft 404 kts 350°
2026-05-08 02:52 34.16677 -84.59074 17626 ft 407 kts 349°
2026-05-08 02:52 34.19525 -84.59160 18060 ft 411 kts 349°
2026-05-08 02:52 34.22392 -84.59246 18488 ft 414 kts 349°
2026-05-08 02:53 34.25279 -84.59333 18875 ft 416 kts 349°
2026-05-08 02:53 34.28184 -84.59420 19259 ft 419 kts 349°
2026-05-08 02:53 34.31102 -84.59559 19634 ft 419 kts 347°
2026-05-08 02:53 34.34014 -84.59793 19976 ft 421 kts 346°
2026-05-08 02:54 34.36943 -84.60066 20358 ft 424 kts 346°
2026-05-08 02:54 34.39896 -84.60349 20720 ft 427 kts 346°
2026-05-08 02:54 34.42872 -84.60628 21077 ft 430 kts 346°
2026-05-08 02:54 34.45864 -84.60900 21412 ft 432 kts 346°
2026-05-08 02:55 34.48879 -84.61167 21751 ft 435 kts 346°
2026-05-08 02:55 34.54956 -84.61692 22394 ft 441 kts 346°
2026-05-08 02:55 34.58026 -84.61954 22718 ft 443 kts 345°
2026-05-08 02:56 34.61115 -84.62217 23022 ft 446 kts 345°
2026-05-08 02:56 34.64222 -84.62481 23363 ft 449 kts 346°
2026-05-08 02:56 34.67349 -84.62747 23642 ft 451 kts 345°
2026-05-08 02:56 34.70455 -84.63011 23933 ft 452 kts 345°
2026-05-08 02:57 34.73598 -84.63278 24241 ft 453 kts 345°
2026-05-08 02:57 34.76744 -84.63547 24483 ft 455 kts 345°
2026-05-08 02:57 34.79908 -84.63826 24681 ft 457 kts 345°
2026-05-08 02:57 34.83081 -84.64103 24976 ft 457 kts 345°
2026-05-08 02:58 34.86253 -84.64372 25289 ft 457 kts 345°
2026-05-08 02:58 34.89431 -84.64637 25715 ft 456 kts 345°
2026-05-08 02:58 34.92567 -84.64895 26085 ft 456 kts 344°
2026-05-08 02:58 34.95737 -84.65175 26228 ft 459 kts 344°
2026-05-08 02:59 34.98932 -84.65458 26440 ft 461 kts 343°
2026-05-08 02:59 35.02140 -84.65735 26716 ft 462 kts 343°
2026-05-08 02:59 35.05352 -84.66009 26980 ft 463 kts 343°
2026-05-08 02:59 35.08527 -84.66282 27227 ft 464 kts 343°
2026-05-08 03:00 35.11745 -84.66558 27561 ft 463 kts 343°
2026-05-08 03:00 35.14949 -84.66825 28156 ft 457 kts 342°
2026-05-08 03:00 35.18083 -84.67064 28960 ft 446 kts 340°
2026-05-08 03:00 35.21166 -84.67321 29418 ft 443 kts 340°
2026-05-08 03:01 35.24250 -84.67596 29719 ft 444 kts 339°
2026-05-08 03:01 35.27319 -84.67877 29996 ft 446 kts 339°
2026-05-08 03:01 35.30422 -84.68156 30349 ft 445 kts 339°
2026-05-08 03:01 35.33499 -84.68428 30713 ft 444 kts 339°
2026-05-08 03:02 35.36585 -84.68699 30981 ft 445 kts 339°
2026-05-08 03:02 35.38635 -84.68880 31209 ft 446 kts 339°
2026-05-08 03:02 35.41727 -84.69149 31622 ft 444 kts 339°
2026-05-08 03:02 35.45838 -84.69501 32161 ft 441 kts 338°
2026-05-08 03:03 35.47869 -84.69678 32332 ft 442 kts 338°
2026-05-08 03:03 35.51951 -84.70039 32643 ft 445 kts 338°
2026-05-08 03:03 35.54039 -84.70223 32840 ft 445 kts 338°
2026-05-08 03:03 35.57124 -84.70493 33171 ft 445 kts 338°
2026-05-08 03:04 35.60213 -84.70761 33488 ft 444 kts 338°
2026-05-08 03:04 35.63299 -84.71031 33767 ft 445 kts 338°
2026-05-08 03:04 35.66352 -84.71296 34189 ft 442 kts 338°
2026-05-08 03:04 35.69393 -84.71553 34630 ft 436 kts 338°
2026-05-08 03:05 35.72418 -84.71812 34942 ft 435 kts 338°
2026-05-08 03:05 35.75443 -84.72080 35144 ft 436 kts 338°
2026-05-08 03:05 35.78466 -84.72351 35357 ft 436 kts 338°
2026-05-08 03:05 35.81496 -84.72621 35624 ft 435 kts 338°
2026-05-08 03:06 35.84511 -84.72885 35897 ft 433 kts 338°
2026-05-08 03:06 35.87518 -84.73155 36101 ft 433 kts 338°
2026-05-08 03:06 35.90504 -84.73416 36380 ft 431 kts 338°
2026-05-08 03:06 35.93496 -84.73677 36637 ft 430 kts 338°
2026-05-08 03:07 35.96480 -84.73939 36848 ft 430 kts 338°
2026-05-08 03:07 35.99457 -84.74201 37074 ft 429 kts 338°
2026-05-08 03:07 36.02447 -84.74470 37051 ft 432 kts 338°
2026-05-08 03:08 36.08434 -84.74999 37057 ft 430 kts 338°
2026-05-08 03:08 36.14387 -84.75522 37138 ft 428 kts 338°
2026-05-08 03:09 36.20281 -84.76046 37078 ft 427 kts 337°
2026-05-08 03:09 36.26197 -84.76571 37074 ft 425 kts 337°
2026-05-08 03:10 36.32090 -84.77096 37078 ft 423 kts 337°
2026-05-08 03:10 36.37968 -84.77621 37082 ft 423 kts 337°
2026-05-08 03:11 36.43861 -84.78089 37083 ft 431 kts 340°
2026-05-08 03:11 36.49892 -84.77972 37078 ft 439 kts 343°
2026-05-08 03:12 36.55998 -84.77680 37084 ft 439 kts 343°
2026-05-08 03:12 36.62102 -84.77441 37095 ft 438 kts 343°
2026-05-08 03:13 36.68211 -84.77255 37106 ft 440 kts 343°
2026-05-08 03:13 36.74330 -84.77082 37115 ft 440 kts 343°
2026-05-08 03:14 36.80455 -84.76907 37120 ft 441 kts 343°
2026-05-08 03:14 36.86581 -84.76732 37116 ft 440 kts 343°
2026-05-08 03:15 36.92703 -84.76550 37118 ft 440 kts 343°
2026-05-08 03:15 36.98821 -84.76375 37073 ft 440 kts 343°
2026-05-08 03:16 37.04933 -84.76199 37069 ft 439 kts 343°
2026-05-08 03:16 37.11038 -84.76022 37072 ft 438 kts 343°
2026-05-08 03:17 37.17076 -84.75849 37088 ft 439 kts 343°
2026-05-08 03:17 37.23145 -84.75672 37088 ft 437 kts 343°
2026-05-08 03:18 37.29224 -84.75494 37083 ft 436 kts 343°
2026-05-08 03:18 37.35299 -84.75312 37093 ft 436 kts 343°
2026-05-08 03:19 37.41376 -84.75111 37096 ft 436 kts 343°
2026-05-08 03:19 37.47443 -84.74904 37093 ft 436 kts 343°
2026-05-08 03:20 37.53468 -84.74701 37097 ft 435 kts 343°
2026-05-08 03:20 37.59514 -84.74499 37099 ft 434 kts 343°
2026-05-08 03:21 37.65568 -84.74300 37117 ft 436 kts 344°
2026-05-08 03:21 37.71634 -84.74097 37092 ft 436 kts 344°
2026-05-08 03:22 37.77688 -84.73907 37091 ft 435 kts 344°
2026-05-08 03:22 37.83755 -84.73728 37135 ft 435 kts 344°
2026-05-08 03:23 37.89827 -84.73549 37081 ft 437 kts 344°
2026-05-08 03:23 37.95903 -84.73365 37070 ft 438 kts 344°
2026-05-08 03:24 38.01996 -84.73180 37078 ft 438 kts 344°
2026-05-08 03:24 38.08092 -84.72994 37155 ft 438 kts 345°
2026-05-08 03:25 38.14203 -84.72810 37090 ft 440 kts 345°
2026-05-08 03:25 38.19744 -84.72640 37070 ft 440 kts 345°
2026-05-08 03:26 38.25875 -84.72451 37071 ft 440 kts 345°
2026-05-08 03:26 38.32006 -84.72263 37069 ft 440 kts 345°
2026-05-08 03:27 38.38142 -84.72075 37067 ft 440 kts 345°
2026-05-08 03:27 38.44264 -84.71903 37055 ft 437 kts 342°
2026-05-08 03:27 38.47218 -84.72222 37061 ft 418 kts 334°
2026-05-08 03:28 38.49993 -84.73034 37060 ft 399 kts 326°
2026-05-08 03:28 38.55141 -84.75445 37101 ft 396 kts 324°
2026-05-08 03:29 38.60322 -84.77886 37068 ft 397 kts 325°
2026-05-08 03:29 38.65536 -84.80315 37057 ft 399 kts 325°
2026-05-08 03:30 38.73390 -84.83957 37054 ft 401 kts 325°
2026-05-08 03:31 38.83880 -84.88834 37059 ft 403 kts 325°
2026-05-08 03:32 38.91802 -84.92526 37048 ft 404 kts 325°
2026-05-08 03:32 38.96726 -84.94827 37048 ft 403 kts 325°
2026-05-08 03:33 39.01968 -84.97289 37091 ft 403 kts 325°
2026-05-08 03:33 39.07243 -84.99775 37052 ft 403 kts 325°
2026-05-08 03:34 39.12513 -85.02258 37053 ft 403 kts 325°
2026-05-08 03:34 39.17780 -85.04744 37031 ft 403 kts 325°
2026-05-08 03:35 39.23040 -85.07232 37040 ft 402 kts 325°
2026-05-08 03:35 39.28302 -85.09726 37060 ft 404 kts 326°
2026-05-08 03:36 39.33582 -85.12231 37050 ft 404 kts 326°
2026-05-08 03:36 39.38870 -85.14737 37039 ft 405 kts 326°
2026-05-08 03:37 39.44165 -85.17240 37040 ft 405 kts 326°
2026-05-08 03:37 39.49717 -85.19871 37061 ft 407 kts 327°
2026-05-08 03:38 39.55038 -85.22397 37038 ft 408 kts 327°
2026-05-08 03:38 39.60377 -85.24936 37037 ft 409 kts 327°
2026-05-08 03:39 39.65726 -85.27483 37028 ft 410 kts 327°
2026-05-08 03:39 39.71050 -85.30023 37026 ft 410 kts 327°
2026-05-08 03:40 39.76427 -85.32595 37031 ft 413 kts 328°
2026-05-08 03:40 39.81825 -85.35179 37032 ft 414 kts 328°
2026-05-08 03:41 39.87248 -85.37779 37018 ft 415 kts 328°
2026-05-08 03:41 39.92676 -85.40385 37020 ft 416 kts 328°
2026-05-08 03:42 39.98112 -85.43003 37018 ft 417 kts 329°
2026-05-08 03:42 40.03533 -85.45614 37015 ft 418 kts 329°
2026-05-08 03:43 40.08993 -85.48248 37013 ft 418 kts 329°
2026-05-08 03:43 40.14459 -85.50891 37007 ft 418 kts 329°
2026-05-08 03:44 40.19923 -85.53538 37011 ft 419 kts 329°
2026-05-08 03:44 40.25391 -85.56192 37005 ft 418 kts 329°
2026-05-08 03:45 40.30822 -85.58832 36998 ft 418 kts 329°
2026-05-08 03:45 40.36269 -85.61484 37002 ft 417 kts 329°
2026-05-08 03:46 40.41707 -85.64138 37036 ft 417 kts 329°
2026-05-08 03:46 40.47052 -85.66984 37001 ft 406 kts 321°
2026-05-08 03:47 40.51567 -85.71180 37005 ft 391 kts 309°
2026-05-08 03:47 40.55225 -85.76351 37006 ft 385 kts 304°
2026-05-08 03:48 40.58756 -85.81604 37011 ft 386 kts 304°
2026-05-08 03:48 40.62327 -85.86903 37001 ft 388 kts 304°
2026-05-08 03:49 40.65919 -85.92218 37000 ft 389 kts 304°
2026-05-08 03:49 40.69520 -85.97548 36988 ft 390 kts 304°
2026-05-08 03:50 40.73126 -86.02890 36990 ft 390 kts 304°
2026-05-08 03:50 40.76729 -86.08239 36991 ft 390 kts 304°
2026-05-08 03:51 40.80338 -86.13607 36988 ft 390 kts 304°
2026-05-08 03:51 40.83941 -86.18976 36966 ft 391 kts 305°
2026-05-08 03:52 40.87547 -86.24359 36985 ft 391 kts 305°
2026-05-08 03:52 40.91149 -86.29743 36984 ft 391 kts 305°
2026-05-08 03:53 40.94723 -86.35096 36987 ft 390 kts 305°
2026-05-08 03:53 40.98317 -86.40490 36988 ft 390 kts 305°
2026-05-08 03:54 41.01900 -86.45878 36984 ft 390 kts 305°
2026-05-08 03:54 41.05478 -86.51267 36976 ft 389 kts 305°
2026-05-08 03:55 41.08446 -86.55745 37014 ft 389 kts 305°
2026-05-08 03:55 41.11997 -86.61179 36970 ft 388 kts 302°
2026-05-08 03:56 41.14790 -86.67198 36978 ft 382 kts 295°
2026-05-08 03:56 41.17357 -86.73398 36968 ft 383 kts 295°
2026-05-08 03:57 41.19934 -86.79587 36964 ft 384 kts 295°
2026-05-08 03:57 41.22524 -86.85798 36968 ft 384 kts 295°
2026-05-08 03:58 41.25111 -86.92009 36967 ft 384 kts 295°
2026-05-08 03:58 41.27688 -86.98214 36464 ft 391 kts 295°
2026-05-08 03:58 41.28991 -87.01352 36039 ft 384 kts 295°
2026-05-08 03:59 41.30285 -87.04472 35174 ft 386 kts 295°
2026-05-08 03:59 41.31579 -87.07597 34582 ft 383 kts 295°
2026-05-08 03:59 41.32867 -87.10709 33510 ft 387 kts 296°
2026-05-08 03:59 41.34168 -87.13859 32640 ft 386 kts 296°
2026-05-08 04:00 41.35520 -87.16948 31774 ft 388 kts 301°
2026-05-08 04:00 41.37131 -87.19811 30921 ft 391 kts 306°
2026-05-08 04:00 41.38993 -87.22437 30073 ft 396 kts 313°
2026-05-08 04:00 41.41062 -87.24883 29010 ft 398 kts 313°
2026-05-08 04:01 41.43136 -87.27320 28098 ft 397 kts 314°
2026-05-08 04:01 41.45177 -87.29735 27442 ft 390 kts 313°
2026-05-08 04:01 41.47184 -87.32130 26818 ft 383 kts 313°
2026-05-08 04:01 41.49131 -87.34463 26156 ft 378 kts 314°
2026-05-08 04:02 41.51135 -87.36710 25488 ft 377 kts 319°
2026-05-08 04:02 41.53306 -87.38684 24861 ft 376 kts 321°
2026-05-08 04:02 41.55481 -87.40584 24217 ft 372 kts 322°
2026-05-08 04:02 41.57637 -87.42473 23585 ft 368 kts 321°
2026-05-08 04:03 41.59758 -87.44353 22872 ft 363 kts 321°
2026-05-08 04:03 41.63893 -87.48058 21655 ft 352 kts 321°
2026-05-08 04:03 41.65891 -87.49904 21056 ft 346 kts 318°
2026-05-08 04:04 41.67736 -87.51940 20430 ft 342 kts 315°
2026-05-08 04:04 41.69519 -87.54024 19845 ft 338 kts 315°
2026-05-08 04:04 41.71265 -87.56052 19281 ft 336 kts 315°
2026-05-08 04:04 41.73038 -87.58090 18700 ft 335 kts 315°
2026-05-08 04:05 41.74825 -87.60113 18101 ft 338 kts 316°
2026-05-08 04:05 41.76648 -87.62152 17457 ft 346 kts 316°
2026-05-08 04:05 41.78518 -87.64241 16837 ft 350 kts 316°
2026-05-08 04:05 41.80368 -87.66309 16250 ft 346 kts 316°
2026-05-08 04:06 41.82189 -87.68382 15676 ft 340 kts 313°
2026-05-08 04:06 41.83777 -87.70687 15109 ft 333 kts 305°
2026-05-08 04:06 41.85069 -87.73228 14621 ft 327 kts 301°
2026-05-08 04:06 41.86298 -87.75772 14055 ft 324 kts 301°
2026-05-08 04:07 41.87380 -87.78405 13475 ft 320 kts 291°
2026-05-08 04:07 41.88052 -87.81199 12945 ft 316 kts 284°
2026-05-08 04:07 41.88440 -87.84088 12422 ft 313 kts 275°
2026-05-08 04:07 41.88477 -87.86997 11906 ft 310 kts 271°
2026-05-08 04:08 41.88462 -87.89888 11370 ft 310 kts 271°
2026-05-08 04:08 41.88453 -87.92800 10875 ft 312 kts 272°
2026-05-08 04:08 41.88449 -87.95681 10778 ft 308 kts 272°
2026-05-08 04:08 41.88448 -87.98523 10633 ft 299 kts 272°
2026-05-08 04:09 41.88405 -88.01257 10500 ft 286 kts 270°
2026-05-08 04:09 41.88312 -88.03867 10379 ft 274 kts 269°
2026-05-08 04:09 41.88217 -88.06340 10274 ft 263 kts 269°
2026-05-08 04:09 41.88126 -88.08749 10165 ft 253 kts 270°
2026-05-08 04:10 41.88042 -88.11052 10066 ft 242 kts 270°
2026-05-08 04:10 41.87963 -88.13263 9963 ft 232 kts 270°
2026-05-08 04:10 41.87888 -88.15420 9694 ft 230 kts 270°
2026-05-08 04:10 41.87815 -88.17558 9355 ft 229 kts 270°
2026-05-08 04:11 41.87741 -88.19686 9038 ft 228 kts 269°
2026-05-08 04:11 41.87667 -88.21807 8716 ft 227 kts 269°
2026-05-08 04:11 41.87593 -88.23930 8397 ft 227 kts 269°
2026-05-08 04:11 41.87518 -88.26047 8079 ft 227 kts 269°
2026-05-08 04:12 41.87471 -88.28160 7715 ft 227 kts 276°
2026-05-08 04:12 41.87990 -88.30200 7161 ft 238 kts 300°
2026-05-08 04:12 41.89108 -88.31871 6770 ft 246 kts 320°
2026-05-08 04:12 41.90671 -88.32843 6439 ft 254 kts 343°
2026-05-08 04:13 41.92450 -88.32845 6098 ft 262 kts
2026-05-08 04:13 41.94092 -88.31742 5791 ft 269 kts 38°
2026-05-08 04:13 41.95188 -88.29702 5523 ft 273 kts 66°
2026-05-08 04:13 41.95587 -88.27253 5458 ft 262 kts 82°
2026-05-08 04:14 41.95779 -88.24886 5353 ft 248 kts 82°
2026-05-08 04:14 41.95957 -88.22664 5240 ft 235 kts 82°
2026-05-08 04:14 41.96134 -88.20518 5145 ft 221 kts 82°
2026-05-08 04:14 41.96301 -88.18541 4959 ft 211 kts 81°
2026-05-08 04:15 41.96458 -88.16661 4792 ft 195 kts 82°
2026-05-08 04:15 41.96539 -88.14888 4562 ft 181 kts 86°
2026-05-08 04:15 41.96557 -88.13273 4307 ft 167 kts 87°
2026-05-08 04:15 41.96561 -88.11738 3858 ft 162 kts 86°
2026-05-08 04:16 41.96561 -88.10231 3398 ft 160 kts 86°
2026-05-08 04:16 41.96561 -88.08755 3002 ft 156 kts 87°
2026-05-08 04:16 41.96562 -88.07281 2797 ft 162 kts 87°
2026-05-08 04:16 41.96562 -88.05741 2548 ft 166 kts 87°
2026-05-08 04:17 41.96562 -88.04203 2317 ft 164 kts 87°
2026-05-08 04:17 41.96563 -88.02697 2101 ft 164 kts 88°
2026-05-08 04:17 41.96563 -88.01164 1873 ft 164 kts 88°
2026-05-08 04:17 41.96564 -87.99631 1653 ft 163 kts 89°
2026-05-08 04:18 41.96566 -87.98136 1431 ft 156 kts 89°
2026-05-08 04:18 41.96567 -87.96721 1216 ft 148 kts 90°
2026-05-08 04:18 41.96568 -87.95357 1030 ft 144 kts 90°
2026-05-08 04:18 41.96570 -87.94019 842 ft 143 kts 90°
2026-05-08 04:19 41.96572 -87.92685 675 ft 140 kts 90°
2026-05-08 04:19 41.96574 -87.91586 668 ft 89 kts 90°
2026-05-08 04:19 41.96575 -87.90982 668 ft 53 kts 90°
2026-05-08 04:19 41.96597 -87.90568 669 ft 35 kts 77°
2026-05-08 04:20 41.96693 -87.90303 668 ft 20 kts 56°
2026-05-08 04:20 41.96752 -87.90172 668 ft 16 kts 59°
2026-05-08 04:20 41.96852 -87.90132 668 ft 15 kts
2026-05-08 04:20 41.96927 -87.90042 670 ft 15 kts 68°
2026-05-08 04:21 41.97011 -87.89999 669 ft 14 kts 14°
2026-05-08 04:21 41.97042 -87.89882 668 ft 14 kts 86°
2026-05-08 04:21 41.97044 -87.89756 669 ft 13 kts 89°
2026-05-08 04:21 41.97045 -87.89635 669 ft 13 kts 89°
2026-05-08 04:22 41.97046 -87.89517 669 ft 12 kts 90°
2026-05-08 04:22 41.97097 -87.89441 668 ft 14 kts
2026-05-08 04:22 41.97193 -87.89477 668 ft 17 kts 301°
2026-05-08 04:22 41.97276 -87.89590 668 ft 18 kts 325°
2026-05-08 04:23 41.97364 -87.89663 665 ft 8 kts 338°
2026-05-08 04:23 41.97378 -87.89670 668 ft 0 kts 341°